Wind_Speed
2 5 14 13 10 9 3 4 6 2 6 3 9 14 12 9 5 8 9 9 9 11 18 27 26 19 27 33 33 35 35 33 32 37 33 33 36 35 37 40 39 38 37 38
3 15 8 5 5 5 7 11 8 7 8 4 8 13 10 6 7 8 11 14 14 11 11 21 28 21 20 31 36 37 37 36 34 34 36 31 30 30 35 36 39 42 43 42
16 4 14 10 6 6 9 12 4 11 5 7 5 17 11 11 7 9 10 13 13 17 16 15 14 20 18 22 30 37 40 37 34 33 31 26 27 26 26 32 38 42 43 45
12 15 7 8 12 9 14 7 6 6 1 6 3 12 13 10 14 9 10 9 11 11 8 6 6 4 8 7 10 20 25 27 27 28 28 29 27 26 29 32 33 33 38 44
6 11 17 11 6 9 6 6 8 8 5 4 16 6 13 5 9 6 8 11 10 9 7 5 8 13 15 15 15 13 6 8 16 21 26 31 29 29 27 27 29 33 35 38
6 2 6 8 8 12 3 2 1 2 2 9 11 7 12 12 10 5 11 7 5 5 8 8 10 13 17 19 19 18 18 16 13 11 13 23 28 28 26 26 26 28 30 31
4 5 2 2 5 3 4 3 3 5 6 9 6 8 18 7 7 8 8 6 8 7 6 7 8 15 22 27 28 25 21 22 21 19 17 14 16 24 28 29 27 28 27 27
13 7 13 5 7 7 10 11 6 6 5 4 1 8 10 9 12 8 6 9 5 6 6 9 12 19 23 28 30 29 28 27 25 25 23 22 19 17 20 24 27 30 30 32
12 14 3 1 4 7 4 12 8 6 3 4 4 7 8 9 2 4 8 9 8 7 9 11 16 20 23 27 29 30 31 31 30 28 26 25 25 26 24 23 24 26 31 33
6 1 5 6 4 3 6 7 3 6 4 5 3 4 6 6 6 5 6 8 7 8 11 10 16 20 23 25 26 29 30 28 30 34 33 30 27 26 28 27 25 25 26 30
2 4 3 8 13 15 5 7 3 3 4 6 2 5 6 5 5 8 6 8 10 8 8 8 13 17 21 23 26 27 29 28 30 35 36 34 32 30 28 29 29 27 25 25
13 3 5 13 1 4 9 13 15 7 8 2 1 5 7 2 4 5 8 9 8 9 8 9 15 18 22 23 25 25 27 27 29 32 32 32 32 32 32 31 30 32 30 26
14 6 4 4 2 1 9 12 13 14 3 6 5 4 0 8 9 10 10 8 9 10 11 10 16 18 19 22 23 25 27 29 30 34 32 31 30 31 35 34 33 32 32 30
23 5 7 11 5 7 10 16 17 14 6 9 9 2 4 12 12 9 6 8 7 9 10 9 11 16 19 21 22 23 24 26 30 29 28 27 29 30 34 36 34 34 32 30
14 13 9 5 4 4 12 19 17 13 8 6 4 10 3 14 15 7 6 8 8 10 13 12 12 16 20 22 25 23 26 29 30 26 25 27 28 28 31 32 36 37 35 31
11 5 10 5 4 4 5 17 20 24 18 17 5 6 10 7 9 9 9 10 6 8 10 11 12 15 16 20 23 22 28 32 31 27 26 28 29 30 32 32 33 34 35 33
14 7 8 13 8 5 3 14 19 16 15 16 13 5 8 6 12 8 7 8 3 7 9 10 11 16 19 21 20 25 28 29 28 26 27 29 30 34 33 33 34 32 33 32
14 9 5 4 7 8 4 6 14 16 7 5 7 4 4 11 12 11 8 6 6 9 10 11 16 19 21 22 23 25 26 25 26 27 27 33 35 35 34 33 31 33 32 31
11 6 4 5 7 4 3 5 8 9 6 1 9 8 10 14 10 4 6 7 7 9 12 15 16 20 21 23 26 26 26 27 27 26 31 33 36 36 37 35 33 32 32 32
4 7 4 3 5 8 6 4 4 2 3 4 7 7 8 10 4 3 4 7 11 11 13 15 19 20 22 25 26 26 26 27 26 32 33 34 35 36 37 37 36 34 31 33
6 5 9 5 2 5 2 4 4 7 3 6 4 6 4 4 3 4 7 8 10 12 15 17 17 18 21 24 25 24 25 25 29 31 34 36 36 36 37 37 35 35 33 32
7 7 3 3 3 7 7 3 5 5 6 9 8 8 9 7 6 7 7 8 12 13 16 18 18 20 22 24 25 26 25 31 32 33 34 36 38 38 35 35 35 33 31 30
3 3 5 2 2 4 8 8 7 4 8 5 7 7 6 6 5 6 6 8 11 14 16 18 19 20 22 26 24 25 28 31 32 35 34 35 35 36 35 33 34 30 28 25
2 4 4 5 2 4 6 9 10 10 12 9 8 7 8 6 5 5 5 9 12 14 16 17 17 17 19 23 23 25 27 31 33 33 33 34 33 34 34 33 31 27 24 23
0 2 6 4 5 5 3 7 8 10 10 9 9 9 6 5 6 6 5 8 10 11 12 12 12 15 19 24 26 29 30 30 29 29 31 31 32 33 33 32 29 14 18 24
2 3 4 4 7 3 6 9 8 8 8 7 7 7 8 7 5 6 5 7 8 9 11 13 15 16 23 27 29 30 31 29 28 27 29 32 31 31 30 30 24 13 14 24
Wind_Direction
222 201 219 212 222 248 259 236 244 270 268 296 275 265 259 258 270 276 285 277 273 269 267 277 276 267 248 242 240 239 236 234 233 230 230 230 232 234 240 244 248 246 244 241
174 231 212 205 207 206 242 263 267 275 262 246 269 268 265 263 255 239 255 270 267 269 273 267 267 262 247 239 240 242 240 239 234 232 230 225 229 235 240 245 248 248 247 246
223 224 184 183 183 189 229 236 229 251 340 291 287 276 276 265 248 255 260 257 264 258 264 270 271 266 270 254 247 242 242 241 240 237 234 232 233 241 237 241 246 247 249 248
227 220 159 204 215 187 239 187 233 250 284 259 174 285 278 280 266 241 248 263 258 261 278 274 260 59 53 360 263 251 245 244 247 245 231 230 228 233 238 240 245 245 246 246
202 179 202 215 195 176 229 190 217 231 222 257 259 277 276 218 265 248 261 248 260 247 238 104 87 77 60 48 48 48 28 277 264 255 247 238 236 243 249 246 245 246 247 246
236 70 178 209 190 192 106 177 8 51 149 248 246 210 261 266 262 243 247 276 297 133 125 105 93 80 63 47 39 35 32 30 8 335 290 262 253 252 253 254 249 248 248 243
169 199 193 204 122 122 153 138 254 236 220 254 187 198 244 273 289 231 228 206 139 148 107 90 63 45 48 44 39 35 27 17 10 6 353 326 293 275 265 263 256 251 247 243
207 209 185 183 196 180 194 183 196 209 220 255 236 228 253 234 262 238 241 183 149 122 97 69 58 50 46 40 35 32 25 20 17 9 356 350 342 317 296 281 270 263 255 249
198 227 101 238 166 152 174 212 235 276 165 270 206 274 292 257 263 141 146 135 145 97 71 68 57 50 42 39 34 29 25 20 14 7 0 353 345 346 334 314 294 278 266 257
196 165 190 187 135 220 196 153 184 214 238 248 232 247 237 336 266 182 145 135 91 76 68 59 51 44 41 37 31 30 26 17 9 5 0 349 344 342 343 341 325 306 289 272
118 177 182 139 203 184 164 197 166 171 221 238 220 254 224 283 195 174 148 98 93 74 63 57 55 45 36 30 24 20 19 16 6 358 356 354 348 343 341 339 340 332 319 298
180 226 181 201 275 208 212 205 207 221 220 254 163 266 267 235 119 30 71 84 82 75 59 49 40 32 28 20 15 13 10 10 3 354 353 353 350 347 343 338 333 335 328 319
167 198 168 182 294 177 218 209 209 216 110 205 162 246 263 84 51 46 85 55 48 52 44 35 32 25 17 11 8 5 5 359 357 352 352 351 348 347 342 338 333 329 328 322
170 172 208 222 194 134 203 200 213 202 224 204 224 248 226 91 80 86 74 81 58 44 36 33 27 19 10 5 359 358 354 354 352 348 347 347 346 340 337 336 333 328 324 321
181 219 202 210 177 152 190 193 194 203 213 206 225 226 168 158 153 134 120 54 31 29 23 18 11 7 359 356 352 351 350 348 347 344 342 340 336 334 335 333 331 329 324 318
205 226 188 206 225 178 197 207 203 210 221 229 204 211 142 150 103 93 65 71 34 24 12 5 356 358 349 348 343 347 343 341 343 341 337 335 332 331 331 329 327 325 324 323
189 177 167 221 176 131 250 216 203 210 209 207 213 183 159 133 124 105 94 87 48 15 8 359 353 350 343 344 343 342 336 335 337 336 333 334 330 325 326 324 324 321 320 321
188 171 170 169 145 214 230 207 189 197 205 136 91 94 86 118 100 93 66 64 23 8 359 357 348 342 342 341 343 338 337 336 336 333 333 332 329 322 320 319 316 317 316 310
182 164 165 162 193 316 305 186 155 170 200 155 133 120 116 118 114 85 53 39 22 4 357 352 347 341 340 343 342 339 339 340 337 337 332 327 324 319 318 315 313 311 307 306
161 194 156 155 149 195 224 137 27 149 251 167 138 141 150 164 186 136 51 28 16 9 357 351 349 347 345 345 343 341 341 339 338 333 327 322 318 315 311 308 306 305 301 300
182 185 201 149 194 285 4 333 312 129 218 119 108 109 118 133 58 76 36 24 13 7 1 359 354 347 344 343 344 343 338 338 330 326 322 319 317 313 309 306 305 303 299 299
171 173 171 99 111 252 10 321 189 112 80 113 97 83 88 85 70 39 27 12 13 9 2 1 358 354 351 351 349 342 338 333 331 328 322 319 321 316 309 306 305 302 298 298
173 166 158 151 176 57 15 74 48 97 121 99 97 81 84 89 53 35 15 18 9 9 3 1 357 352 353 351 348 340 334 334 330 328 325 322 319 318 314 308 304 300 300 295
65 6 93 129 118 107 98 77 67 73 96 94 85 81 71 72 51 38 21 20 12 7 2 357 350 346 342 345 346 345 338 337 334 330 328 328 324 320 318 314 304 299 300 301
311 57 114 77 120 106 95 102 110 97 91 90 79 76 73 72 56 30 23 17 7 0 354 347 341 342 339 349 355 1 350 346 342 335 335 334 330 325 323 318 308 359 33 22
342 127 168 197 159 112 122 131 122 111 100 87 101 91 70 63 58 35 27 12 0 352 344 342 350 350 355 5 6 2 359 355 352 346 346 340 335 333 334 335 336 348 17 23
Height
839 845 839 837 840 837 846 851 853 844 836 838 838 831 822 818 818 820 817 813 810 805 797 793 790 790 789 792 793 793 796 794 798 802 804 806 804 806 809 809 810 812 813 813
842 836 836 836 840 844 848 851 850 844 837 837 837 828 823 819 814 813 811 805 801 799 794 788 786 786 785 784 785 787 788 790 791 794 796 798 800 799 800 803 804 805 805 805
831 829 831 837 842 848 847 848 850 847 840 836 834 824 822 809 809 804 802 797 795 791 788 782 781 781 782 781 780 781 782 784 787 789 793 795 797 797 795 794 794 794 798 800
833 826 832 839 839 843 845 840 842 844 848 852 832 828 816 810 803 803 799 796 791 789 784 782 779 778 778 778 776 778 780 782 785 787 788 789 790 790 788 788 788 788 788 789
824 824 828 832 834 838 839 833 839 840 846 848 831 843 808 807 806 800 794 787 784 781 780 782 781 780 780 779 778 778 778 780 782 786 786 785 784 784 784 784 784 783 782 782
823 824 826 825 827 830 830 835 841 843 847 841 827 841 809 799 791 790 784 783 782 782 781 781 782 782 780 779 778 778 778 779 780 782 782 782 780 779 780 779 778 778 777 776
824 825 825 824 829 831 835 842 848 842 842 829 820 832 796 789 785 789 784 786 781 783 782 781 782 784 783 782 780 780 779 778 779 780 780 779 777 776 774 773 772 771 770 769
816 817 819 819 818 825 828 831 840 843 839 831 828 818 794 784 776 773 777 780 783 785 785 786 788 789 787 786 784 781 781 780 779 778 777 777 775 773 770 767 766 764 762 761
807 807 813 814 815 814 824 825 819 830 851 831 820 815 792 783 778 779 781 782 786 787 790 791 791 792 793 790 789 786 784 784 782 779 776 775 773 770 767 763 760 758 755 753
799 814 811 814 811 812 815 819 826 824 824 822 818 816 803 789 789 786 785 787 792 794 794 795 796 797 797 796 793 789 787 786 784 781 777 774 771 767 764 760 756 753 750 748
794 798 812 813 803 801 814 812 818 821 823 810 819 810 788 783 782 788 787 790 797 803 804 803 803 802 800 800 796 793 789 785 784 782 778 773 769 765 760 758 754 750 746 743
792 797 797 795 801 798 798 797 805 809 812 816 813 816 778 776 782 792 795 798 806 808 810 808 807 805 802 801 799 796 793 788 785 784 780 776 772 766 761 756 752 747 743 739
781 789 793 795 806 804 797 797 795 795 809 811 819 808 779 781 791 798 808 814 815 813 814 813 811 811 810 806 802 799 795 791 787 783 779 774 771 767 763 757 751 746 740 736
769 779 779 770 773 785 790 787 791 793 802 794 795 788 782 793 798 808 817 816 820 820 819 817 815 815 815 812 808 803 801 795 787 783 780 774 770 766 761 755 749 743 737 732
764 769 782 778 773 776 776 781 787 790 794 792 784 784 778 786 790 806 814 815 818 818 816 818 818 818 817 816 810 807 802 797 790 784 781 777 772 767 759 753 747 741 735 728
759 768 770 779 775 774 774 776 777 780 785 790 781 775 777 788 793 808 814 818 826 827 827 824 825 823 822 819 814 808 804 797 790 784 780 776 772 765 759 752 746 739 733 725
755 767 766 762 776 783 786 780 772 773 771 772 777 775 787 793 801 817 824 825 834 832 830 828 828 826 823 818 813 808 802 796 790 785 780 774 770 764 756 750 745 738 731 724
746 760 767 775 779 767 754 757 755 761 770 775 788 792 790 797 816 825 832 835 835 832 830 829 829 826 822 817 812 807 802 796 790 784 780 773 767 762 755 748 741 734 727 723
739 755 759 760 758 773 757 757 763 764 776 795 792 800 806 814 822 835 837 836 836 834 833 832 831 827 821 816 810 805 799 793 789 784 779 773 767 759 751 744 737 731 724 718
741 739 742 771 780 788 756 760 769 754 770 799 797 805 809 814 814 828 837 836 834 834 836 834 829 825 820 814 810 804 798 793 790 784 777 772 765 757 749 741 734 725 720 712
735 742 737 762 789 774 762 775 771 769 772 803 809 814 815 816 826 832 834 835 836 836 834 832 829 825 821 815 810 805 801 796 790 783 777 769 761 753 746 736 729 721 713 706
725 733 735 763 784 758 795 776 757 792 805 808 815 817 820 825 830 833 835 835 835 835 833 831 828 824 819 815 809 805 800 794 786 779 773 765 757 750 742 733 723 717 709 700
735 738 748 754 764 800 803 802 802 800 805 814 817 822 824 828 833 835 836 836 835 834 832 830 826 822 817 813 810 805 799 792 785 777 768 761 755 746 737 729 719 712 705 697
754 763 764 778 801 805 809 810 810 811 814 819 822 825 826 829 833 836 835 835 835 834 832 830 827 824 820 816 811 806 799 792 784 774 765 758 752 743 734 726 718 709 702 694
772 768 776 797 806 808 810 811 815 819 821 823 826 827 829 830 832 834 834 835 836 836 835 833 830 825 820 814 808 803 796 790 780 773 765 758 750 742 731 722 715 706 702 697
794 773 766 761 783 790 799 813 816 820 824 826 827 830 832 833 834 835 836 836 837 836 835 832 828 824 819 812 806 803 798 792 780 772 764 760 753 744 734 724 714 709 705 699